Location: Bay View Park
(38.5076°N, 75.0593°W)
Time: 04:58:25
(UTC+00:00)

Daily predictions for brighter satellites

Satellite Brightness Start Highest point End
(mag) Time Altitude Azimuth Time Altitude Azimuth Time Altitude Azimuth
Cosmos 676 Rocket 4.4 00:51:36 10° S 00:56:37 45° ESE 01:01:41 10° NNE
Cosmos 1190 Rocket 4.0 00:54:29 10° SSW 00:59:46 84° ESE 01:05:06 10° NNE
Cosmos 2026 Rocket 4.1 00:54:08 10° S 01:00:20 83° W 01:06:27 10° N
Resurs 01 Rocket 1.7 00:56:06 10° SSE 01:00:30 90° WSW 01:04:55 10° NNW
Cosmos 2082 Rocket 2.9 00:56:10 10° SW 01:01:48 62° WNW 01:07:28 10° NNE
SL-16 R/B 3.7 00:57:50 10° N 01:02:18 23° NE 01:06:43 10° ESE
Cosmos 1707 3.1 01:00:38 10° SSE 01:04:00 39° E 01:07:23 10° NNE
Cosmos 2333 Rocket 4.4 01:03:50 10° NNE 01:05:58 12° NE 01:08:07 10° ENE
ASTRO E2 4.2 01:05:03 10° SSW 01:07:05 15° SSE 01:09:03 10° SE
Cosmos 2369 3.8 01:01:43 10° NNW 01:07:29 80° ENE 01:13:12 10° SSE
MOS 1-B Rocket 4.0 01:03:49 10° SSE 01:10:06 89° E 01:15:48 10° NNW
PSLV R/B 3.5 01:06:57 10° SSE 01:10:30 82° ENE 01:14:00 10° N
ERS-1 Rocket 4.3 01:09:57 10° ESE 01:13:52 24° ENE 01:17:49 10° NNE
Atlas Centaur 2 3.4 01:07:22 10° WSW 01:14:49 48° S 01:22:45 10° ESE
Cosmos 1763 Rocket 3.5 01:14:24 10° NNW 01:19:39 83° ENE 01:24:48 10° SSE
Cosmos 1674 2.9 01:17:12 10° SSW 01:20:37 64° W 01:24:03 10° N
USA 234 3.3 01:14:55 10° NE 01:21:23 61° SE 01:27:48 10° SSW
Terra 3.3 01:18:00 11° ESE 01:21:24 22° ENE 01:24:58 10° NNE
CZ-4C R/B 3.6 01:18:02 10° NNE 01:22:06 53° E 01:26:05 10° S
CSL-04 Rocket 4.2 01:22:10 10° S 01:27:20 57° W 01:32:36 10° NNW
SL-27 R/B 4.1 01:28:29 12° E 01:28:29 12° E 01:29:13 10° ENE
IRIDIUM 104 4.4 01:25:26 10° N 01:30:40 81° W 01:35:53 10° S
Cosmos 1766 4.4 01:29:54 10° NNW 01:33:27 40° W 01:36:57 10° SSW
BREEZE-M DEB (TANK) 3.3 01:31:58 10° WSW 01:34:53 64° NNW 01:43:12 10° NE
ARGOS Delta rocket 3.7 01:36:10 15° SSE 01:39:51 61° ENE 01:44:11 10° N
Cosmos 1980 Rocket 3.4 01:37:20 10° NW 01:42:33 38° WSW 01:47:41 10° S
Cosmos 1400 Rocket 3.0 01:40:02 14° SSE 01:43:06 48° E 01:46:49 10° NNE
Cosmos 1441 Rocket 3.0 01:40:53 10° N 01:44:29 68° E 01:46:53 20° SSE
Cosmos 2322 Rocket 3.3 01:39:43 10° N 01:44:44 31° ENE 01:48:23 16° ESE
Okean-O 2.8 01:43:04 11° S 01:47:16 69° WSW 01:51:41 10° NNW
Meteor 2-10 Rocket 4.4 01:42:59 10° N 01:48:02 36° ENE 01:51:04 20° SE
ATLAS CENTAUR R/B 0.8 01:45:06 10° SSW 01:48:29 60° ESE 01:51:59 10° NE
Cosmos 1356 Rocket 4.4 01:46:46 21° SE 01:48:35 30° E 01:52:15 10° NNE
Cosmos 1908 2.9 01:45:46 10° N 01:49:22 85° E 01:51:48 20° S
Ariane Rocket 3.8 01:49:18 19° SE 01:52:19 37° ENE 01:56:58 10° N
Cosmos 381 Rocket 4.5 01:45:59 10° NNW 01:52:22 90° ESE 01:57:21 17° SSE
Cosmos 468 Rocket 4.1 01:47:12 10° NNW 01:52:24 76° WSW 01:56:27 17° S
USA 245 3.5 01:54:39 27° SE 01:56:12 48° ENE 02:00:13 10° N
Cosmos 2278 3.7 01:52:10 10° NNW 01:57:55 82° ENE 02:01:45 22° SSE
ATLAS 2AS CENTAUR R/B 3.7 01:55:37 10° NNW 02:01:46 34° NE 02:06:25 16° ESE
Timation 1 Rocket 4.4 01:56:44 10° SSW 02:02:41 85° WNW 02:08:41 10° NNE
Cosmos 2228 Rocket 3.4 02:02:01 25° SSE 02:04:24 49° E 02:08:48 10° NNE
Okean O Rocket 3.8 02:02:45 10° SW 02:06:07 22° W 02:09:31 10° NW
Cosmos 1470 4.0 02:02:53 10° NNW 02:06:16 34° W 02:09:26 11° SSW
Cosmos 1850 Rocket 3.9 02:01:12 10° S 02:06:25 75° ESE 02:11:38 10° NNE
Cosmos 1869 Rocket 3.5 02:02:23 10° N 02:06:51 87° W 02:09:36 23° S
Cosmos 540 Rocket 4.2 02:02:12 10° NNW 02:07:08 48° WSW 02:11:09 15° S
Cosmos 2219 Rocket 3.9 02:04:43 10° N 02:08:51 20° NE 02:11:59 13° E
MOS 1 Rocket 3.8 02:07:54 25° SE 02:10:55 58° ENE 02:16:08 10° N
S3M 4.0 02:05:01 10° N 02:11:24 82° E 02:15:45 21° S
BlueWalker 3 4.0 02:14:18 14° ENE 02:14:18 14° ENE 02:14:57 10° ENE
Landsat 4 4.0 02:11:53 36° ESE 02:12:40 43° ENE 02:15:57 10° N
Cosmos 2237 4.2 02:09:15 10° NNW 02:14:59 81° WSW 02:18:21 26° SSE
Cosmos 2266 Rocket 4.2 02:10:03 10° SSW 02:16:20 76° W 02:22:46 10° N
Cosmos 968 Rocket 3.4 02:15:24 19° S 02:18:59 66° ESE 02:24:07 10° NNE
SeaSat 1 2.4 02:18:09 31° SE 02:20:32 78° ENE 02:25:28 10° NNW
SPOT 3 Rocket 3.6 02:20:05 31° SSE 02:22:33 67° ENE 02:27:40 10° N
Cosmos 1655 Rocket 4.0 02:17:55 17° S 02:23:03 84° E 02:29:29 10° N
SPOT 5 3.7 02:22:14 16° SSW 02:25:12 38° W 02:29:17 10° NNW
Tiangong -0.6 02:22:37 10° W 02:24:57 25° SW 02:24:57 25° SW
SL-14 R/B 3.1 02:24:49 33° SSW 02:26:27 82° W 02:30:15 10° N
Cosmos 1741 Rocket 4.2 02:21:48 10° SSW 02:27:03 75° WNW 02:32:22 10° NNE
Landsat 5 3.6 02:28:03 10° NNE 02:32:03 54° E 02:32:47 47° SE
Cosmos 2360 Rocket 2.4 02:28:53 10° NNW 02:34:30 60° ENE 02:36:45 35° SE
Cosmos 1862 Rocket 3.4 02:33:48 40° S 02:35:21 80° E 02:39:46 10° N
Okean 3 3.4 02:34:34 49° SE 02:35:22 61° E 02:39:29 10° NNE
Cosmos 1346 Rocket 2.6 02:31:43 10° N 02:35:33 67° E 02:36:07 57° SE
Cosmos 1455 4.1 02:34:24 10° NE 02:36:13 16° ENE 02:36:13 16° ENE
COSMOS 2455 4.2 02:44:44 21° E 02:44:44 21° E 02:48:30 10° ENE
SL-16 R/B 2.8 02:41:11 10° NNW 02:46:39 50° WSW 02:49:14 29° SSW
RESURS DK-1 2.6 02:44:46 10° NNW 02:48:45 56° WSW 02:49:28 48° SSW
Cosmos 2333 Rocket 2.2 02:45:27 10° NNW 02:51:14 76° ENE 02:53:10 43° SE
SJ 16-02 1.3 02:50:25 39° SSW 02:51:56 77° WNW 02:56:16 10° NNE
ERS-1 Rocket 4.1 02:49:41 22° SSW 02:52:22 37° W 02:57:02 10° NNW
Cosmos 1707 Rocket 4.4 02:53:33 25° SW 02:55:48 48° W 03:00:07 10° N
Cosmos 1758 4.1 02:53:59 10° NNW 02:57:44 44° W 02:58:34 38° SW
Terra 3.0 02:56:42 25° SW 02:58:44 36° W 03:03:04 10° NNW
SL-27 R/B 4.5 02:59:50 15° W 03:00:47 18° WNW 03:02:47 10° NNW
Iridium 51 4.4 03:02:30 65° S 03:03:08 88° W 03:07:28 10° N
Atlas Centaur 2 3.5 02:56:18 10° W 03:03:41 37° SSW 03:05:10 35° S
CZ-2C R/B 4.3 03:00:10 10° NNE 03:03:53 39° E 03:03:53 39° E
SL-08 R/B 4.4 03:04:03 45° SSE 03:05:50 65° E 03:11:51 10° NNE
Aureole 3 4.0 03:06:44 43° WSW 03:07:37 52° WNW 03:12:07 10° N
CZ-4C R/B 3.4 03:13:33 21° ENE 03:13:33 21° ENE 03:15:46 10° NE
Cosmos 1300 4.1 03:10:01 10° NNW 03:13:02 26° W 03:13:23 26° WSW
Meteor 1-16 Rocket 4.3 03:08:05 10° N 03:14:01 85° W 03:15:43 50° S
ARIANE 5 R/B 3.4 03:15:40 36° ENE 03:15:40 36° ENE 03:19:38 10° N
Cosmos 2333 4.2 03:14:04 10° NNW 03:19:52 82° WSW 03:21:08 56° S
Cosmos 1733 Rocket 4.2 03:16:05 10° NNW 03:20:08 36° W 03:21:04 32° WSW
Okean 1-7 3.2 03:19:45 61° WSW 03:20:11 66° W 03:24:29 10° N
Meteor 1-4 Rocket 4.1 03:21:00 27° NW 03:21:00 27° NW 03:23:06 10° NNW
ATLAS CENTAUR R/B 4.4 03:25:38 10° WNW 03:26:32 11° NW 03:27:27 10° NNW
Cosmos 2322 Rocket 3.2 03:23:37 10° NW 03:28:44 35° WSW 03:30:11 31° SW
Okean 2 4.0 03:30:42 47° W 03:30:49 47° W 03:34:42 10° N
Cosmos 2297 Rocket 3.3 03:32:33 28° E 03:32:33 28° E 03:36:27 10° NE
Cosmos 1908 Rocket 3.5 03:30:43 10° N 03:34:47 77° NNW 03:34:47 77° NNW
GP-B 3.1 03:31:41 10° N 03:35:47 73° NE 03:35:47 73° NE
Cosmos 1782 Rocket 4.2 03:33:47 10° N 03:37:25 46° NE 03:37:25 46° NE
Cosmos 1315 Rocket 4.0 03:38:28 34° W 03:38:48 34° WNW 03:42:28 10° N
Cosmos 1953 3.1 03:38:15 10° NNW 03:41:18 46° NW 03:41:18 46° NW
BlueWalker 3 3.5 03:48:25 25° WNW 03:49:46 33° NNW 03:53:11 10° NNE
Cosmos 1745 Rocket 3.9 03:48:52 60° S 03:50:09 89° ESE 03:56:34 10° N
PSLV R/B 4.4 03:46:29 10° N 03:49:38 54° N 03:49:38 54° N
ATLAS 2AS CENTAUR R/B 3.0 03:46:24 10° NW 03:52:47 47° WSW 03:53:49 44° SW
Cosmos 2219 Rocket 2.3 03:47:37 10° NNW 03:53:11 59° WSW 03:53:40 57° SW
Meteor 2-5 Rocket 4.3 03:53:35 44° E 03:53:41 44° E 03:59:12 10° NNE
Cosmos 1300 Rocket 4.1 03:50:33 10° N 03:54:04 53° NNE 03:54:04 53° NNE
COSMOS 2428 2.7 03:50:34 10° NNW 03:56:14 66° ENE 03:56:49 62° E
USA 281 3.1 03:54:58 58° SSE 03:56:25 85° ENE 04:03:02 10° NNW
Cosmos 304 Rocket 4.5 03:58:20 44° ENE 03:58:20 44° ENE 04:01:55 10° NNE
Nadezhda 1 Rocket 3.9 03:57:09 10° N 04:03:25 80° W 04:04:20 65° SSW
ALOS 2 3.5 04:06:37 40° NE 04:06:37 40° NE 04:10:12 10° N
Cosmos 1570 Rocket 4.0 04:00:53 10° NNW 04:06:14 75° WSW 04:06:14 75° WSW
Cosmos 158 Rocket 3.9 04:04:14 10° NNW 04:09:23 80° NE 04:09:23 80° NE
Cosmos 1455 4.3 04:08:14 10° NW 04:09:56 19° WNW 04:09:56 19° WNW
Cosmos 2360 Rocket 4.1 04:14:21 10° WNW 04:17:53 17° W 04:18:30 17° WSW
H-2A R/B 3.2 04:22:37 51° NW 04:22:37 51° NW 04:25:55 10° NNW
COSMOS 2455 3.3 04:27:48 42° WSW 04:29:29 55° WNW 04:35:26 10° NNE
Cosmos 2242 Rocket 4.5 04:31:59 46° WNW 04:31:59 46° WNW 04:35:55 10° N
Cosmos 773 Rocket 4.1 04:27:18 10° NNW 04:32:11 66° NE 04:32:11 66° NE
Cosmos 2333 Rocket 4.4 04:32:05 10° WNW 04:34:45 13° W 04:35:10 13° WSW
NOSS 0 Rocket 3.8 04:34:58 10° NNW 04:41:14 81° WSW 04:41:34 78° SSW
CZ-3 Stage 3 4.0 04:18:19 10° W 04:42:48 44° SW 04:43:32 43° SSW
Cosmos 1825 4.4 04:45:15 19° NNE 04:45:15 19° NNE 04:46:26 10° NNE
Cosmos 1777 Rocket 4.1 04:44:04 74° NW 04:44:04 74° NW 04:49:10 10° NNE
Cosmos 1503 Rocket 4.3 04:44:15 62° WNW 04:44:20 62° WNW 04:49:37 10° NNE
CENTAUR R/B 2.6 04:46:01 52° E 04:46:01 52° E 04:51:40 10° NE
SL-16 R/B 4.2 04:43:07 10° N 04:47:25 21° NE 04:50:11 15° E
Cosmos 371 Rocket 4.4 04:49:55 35° WNW 04:50:07 35° WNW 04:54:33 10° N
SL-4 R/B 3.3 04:47:14 10° NW 04:50:42 39° NNE 04:50:42 39° NNE
Cosmos 2237 Rocket 2.1 04:48:37 10° NNW 04:54:18 78° ENE 04:54:21 78° ENE
Cosmos 2227 Rocket 2.1 04:55:36 77° ENE 04:55:36 77° ENE 05:01:02 10° NNE
Meteor 1-24 Rocket 4.2 04:58:53 49° W 04:59:21 50° WNW 05:04:52 10° N
CZ-4C R/B 3.3 04:58:36 27° WNW 04:59:50 30° NW 05:04:34 10° NNE
GEOS 3 Rocket 3.9 04:55:41 10° NE 04:59:59 57° ENE 04:59:59 57° ENE
Cosmos 2184 Rocket 3.9 05:04:30 73° SE 05:05:00 78° E 05:11:23 10° N
Cosmos 1980 3.7 05:01:53 10° NNW 05:07:17 75° WNW 05:07:17 75° WNW
Okean 1 Rocket 4.0 05:04:01 10° N 05:07:21 44° NE 05:07:21 44° NE
Cosmos 2297 Rocket 3.2 05:14:18 33° W 05:15:31 36° WNW 05:20:43 10° N
Cosmos 967 Rocket 4.5 05:17:24 65° SE 05:17:37 66° ESE 05:24:02 10° NE
Cosmos 2219 3.3 05:19:41 66° E 05:19:41 66° E 05:24:59 10° NNE
Cosmos 2154 Rocket 3.8 05:21:34 77° SSE 05:22:04 85° E 05:28:22 10° N
Cosmos 1898 Rocket 4.3 05:25:01 39° E 05:25:01 39° E 05:29:17 10° NNE
H-2A R/B 3.1 05:23:08 10° N 05:26:17 41° NNW 05:26:17 41° NNW
Cosmos 1975 Rocket 4.4 05:28:55 33° ENE 05:28:55 33° ENE 05:32:06 10° NNE
NOSS 3-2 (A) 3.0 05:34:24 78° ENE 05:34:24 78° ENE 05:39:55 10° NE
Cosmos 292 Rocket 4.2 05:35:18 57° NE 05:35:18 57° NE 05:39:18 10° NNE
Resurs 1-4 Rocket 4.3 05:37:23 10° ENE 05:40:04 14° E 05:41:06 13° ESE
NOSS 3-2 (C) 4.0 05:41:30 36° E 05:41:30 36° E 05:46:09 10° NE
Cosmos 1455 Rocket 3.7 05:40:12 10° N 05:44:01 52° NE 05:44:01 52° NE
Cosmos 2263 Rocket 2.0 05:47:06 80° ESE 05:47:09 80° ESE 05:52:44 10° NNE
Helios 1A Rocket 4.3 05:48:10 31° NE 05:48:10 31° NE 05:51:06 10° N
Cosmos 1461 4.2 05:53:11 34° NE 05:53:11 34° NE 05:55:34 10° NE
Cosmos 1025 Rocket 3.9 05:52:53 44° NW 05:52:53 44° NW 05:56:14 10° N
Cosmos 1844 Rocket 4.3 06:05:47 20° ESE 06:06:48 21° E 06:10:51 10° NE
Cosmos 2341 Rocket 3.9 06:11:19 61° S 06:12:28 82° E 06:18:42 10° N
Cosmos 1869 4.3 06:11:36 10° N 06:14:31 39° NE 06:14:31 39° NE
Cosmos 1339 Rocket 4.5 06:12:17 10° N 06:18:40 75° W 06:19:52 59° SSW
COBE Rocket 4.1 06:13:47 10° NNE 06:18:55 63° E 06:19:27 59° SE
In-Cosmos 22 Rocket 4.2 06:19:43 61° WSW 06:20:26 67° W 06:26:15 10° N
IDEFIX/ARIANE 42P 3.0 06:21:53 10° NNE 06:27:00 53° E 06:27:55 47° SE
SL-16 R/B 2.3 06:26:19 10° NNW 06:31:52 55° WSW 06:32:00 55° WSW
Cosmos 1900 4.2 06:31:55 75° SSW 06:32:20 86° ESE 06:37:29 10° NNE
Cosmos 858 Rocket 4.4 06:34:25 68° SW 06:35:01 77° WNW 06:40:16 10° NNE
CENTAUR R/B 4.0 06:33:07 17° W 06:36:27 27° NW 06:42:14 10° NNE
CZ-2C R/B 4.1 06:31:34 10° NNE 06:36:28 37° E 06:38:01 30° SE
Cosmos 2237 Rocket 4.4 06:35:17 10° WNW 06:36:08 11° W 06:36:08 11° W
Cosmos 2082 4.4 06:36:51 36° W 06:38:05 41° WNW 06:43:24 10° N
CZ-2C R/B 3.5 06:36:30 23° SE 06:39:24 46° ENE 06:44:30 10° N
MOZ.5/SAFIR/RUBIN 5/SL-8 3.6 06:39:24 74° SSE 06:39:50 89° ENE 06:44:29 10° NNW
Cosmos 2227 Rocket 4.3 06:37:23 12° W 06:40:03 16° NW 06:43:24 10° NNW
Cosmos 1821 Rocket 4.2 06:40:25 39° SSE 06:42:35 64° E 06:48:38 10° NNE
MSX 4.0 06:37:41 10° NNE 06:43:23 66° ESE 06:45:07 44° SSE
CZ-2D R/B 2.5 06:38:57 10° NNE 06:44:09 53° E 06:45:38 40° SSE
Cosmos 1943 3.7 06:40:05 10° NNW 06:45:37 58° ENE 06:49:35 19° SE
USA 238 DEB 3.5 06:45:17 48° S 06:46:59 68° ESE 06:53:28 10° NE
USA 238 3.5 06:45:20 47° S 06:47:02 67° ESE 06:53:31 10° NE
Cosmos 2218 Rocket 4.0 06:45:40 49° SW 06:47:17 68° W 06:53:28 10° N
Cosmos 1606 3.5 06:46:44 10° NNW 06:49:14 40° NW 06:49:14 40° NW
Cosmos 1867 3.6 06:49:37 53° S 06:50:45 69° ESE 06:56:13 10° NE
Cosmos 2366 rocket 4.2 06:51:04 45° SW 06:52:45 59° W 06:58:55 10° N
Cosmos 2228 2.9 06:48:47 10° N 06:53:06 85° E 06:53:30 73° SSE
Cosmos 1544 Rocket 3.5 06:52:00 10° NNW 06:56:23 63° W 06:56:27 63° W
H-2A R/B 3.2 06:55:18 10° N 06:59:17 82° WNW 06:59:26 80° WSW
Cosmos 923 Rocket 4.1 06:55:34 10° NNW 07:00:40 53° WSW 07:01:12 50° SW
Cosmos 1937 Rocket 4.4 07:00:05 31° W 07:01:16 35° WNW 07:06:03 10° N
NPP 3.6 06:58:45 10° N 07:04:08 72° WNW 07:05:42 46° SW
ADEOS II 2.5 06:59:12 10° NNE 07:04:21 54° E 07:06:31 32° SSE
ALOS 3.7 07:03:09 10° NE 07:07:12 30° E 07:09:34 19° SE
Cosmos 2227 4.5 07:11:34 39° WSW 07:13:29 57° WNW 07:19:10 10° NNE
Resurs 1-4 Rocket 2.1 07:15:01 10° N 07:20:16 66° WNW 07:22:10 39° SW
SL-16 R/B 3.2 07:15:59 10° SE 07:22:02 54° ENE 07:28:05 10° N
Cosmos 1844 3.7 07:19:48 37° SSW 07:22:14 84° ESE 07:28:03 10° NNE
Cosmos 921 Rocket 3.3 07:23:10 10° N 07:27:20 62° ENE 07:30:20 18° SSE
Cosmos 2263 Rocket 4.3 07:28:45 11° W 07:31:43 15° NW 07:34:53 10° NNW
NOSS 3-2 (C) 4.5 07:28:54 19° W 07:31:47 31° NW 07:37:06 10° NNE
Cosmos 1606 Rocket 3.6 07:27:25 10° N 07:31:52 79° E 07:34:20 26° SSE
USA 267 3.3 07:29:06 10° NE 07:35:37 71° SE 07:39:25 27° SSW
Cosmos 2058 4.0 07:34:18 18° SSE 07:36:51 39° E 07:40:39 10° NNE
Meteor 1-28 Rocket 3.3 07:35:57 26° SSE 07:37:47 67° ENE 07:41:20 10° N
BREEZE-M DEB (TANK) 3.7 07:34:40 25° SSW 07:39:43 53° SSE 07:43:16 10° ENE
Cosmos 1680 Rocket 4.4 07:37:51 10° NW 07:42:18 29° W 07:43:08 28° WSW
Iridium 2 2.6 07:44:42 73° E 07:44:42 73° E 07:47:07 10° N
Cosmos 1726 Rocket 3.5 07:42:30 10° N 07:46:57 85° E 07:50:10 18° S
Alouette 2 Rocket 3.7 07:44:25 24° S 07:47:23 78° E 07:51:12 10° NNE
Cosmos 1727 Rocket 4.3 07:41:38 10° NNW 07:47:41 49° W 07:51:19 24° SSW
Cosmos 1238 Rocket 4.5 07:46:45 10° NNE 07:49:28 24° ENE 07:51:59 10° SE
Cosmos 1844 Rocket 3.1 07:47:26 26° SW 07:50:16 49° WNW 07:55:40 10° NNE
Cosmos 1818 4.4 07:45:36 10° NW 07:50:18 30° WSW 07:51:34 27° SW
Cosmos 1437 Rocket 4.2 07:54:44 20° W 07:55:26 22° WNW 07:58:25 10° NNW
Delta 2 Rocket 3.6 07:57:55 29° WSW 07:59:23 42° SSW 08:03:25 10° ESE
SEDSat Delta rocket 3.6 07:59:34 27° SSW 08:00:23 30° S 08:03:56 10° ESE
SAR-Lupe-1 4.0 07:59:36 10° NNE 08:03:12 89° E 08:05:16 24° SSW
IDEFIX/ARIANE 42P 4.3 08:02:32 10° NNW 08:06:04 19° WNW 08:08:40 13° W
ASTEX 1 3.6 08:04:21 21° SSW 08:07:21 48° W 08:12:04 10° NNW
Timation 2 Rocket 4.1 08:08:32 19° SSW 08:13:35 74° WNW 08:20:00 10° NNE
CZ-2C R/B 3.3 08:10:08 10° NNE 08:14:29 43° E 08:18:52 10° S
Cosmos 2278 Rocket 4.4 08:11:22 10° SSE 08:15:26 21° E 08:19:29 10° NE
Envisat 3.1 08:10:31 10° NNE 08:15:36 75° ESE 08:20:39 10° S
CZ-2C R/B 4.4 08:11:44 10° NNW 08:16:02 25° WNW 08:19:01 15° WSW
Lacrosse 5 4.3 08:14:39 10° SE 08:16:53 13° ESE 08:19:06 10° E
Cosmos 1048 Rocket 4.1 08:13:06 10° NNW 08:18:13 54° WSW 08:23:21 10° S
CZ-2C R/B 4.0 08:17:59 17° WSW 08:19:51 20° W 08:23:46 10° NW
Cosmos 1603 4.3 08:15:34 10° NW 08:20:44 35° WSW 08:25:52 10° SSW
CZ-2D R/B 3.8 08:20:04 10° NNW 08:23:41 19° WNW 08:26:55 11° WSW
Cosmos 1892 Rocket 4.5 08:22:12 18° SW 08:24:46 32° WNW 08:28:46 10° NNW
Cosmos 1125 Rocket 4.0 08:21:20 17° SW 08:25:07 46° WNW 08:30:13 10° N
Cosmos 1271 Rocket 4.4 08:22:45 10° SSE 08:25:53 29° E 08:29:02 10° NNE
UNK 3.7 08:21:24 10° S 08:25:57 62° WSW 08:30:30 10° NNW
Cosmos 1544 2.3 08:24:37 23° SSW 08:26:00 54° W 08:28:34 10° N
Cosmos 2058 Rocket 3.1 08:23:27 10° NNW 08:27:50 65° W 08:32:09 10° S
Cosmos 1758 Rocket 4.3 08:25:17 10° S 08:29:36 54° E 08:33:54 10° NNE
Cosmos 1607 4.0 08:27:00 10° NW 08:33:14 58° WSW 08:39:20 10° SSE
NOSS 2-2 (E) 2.9 08:34:25 13° SSW 08:37:27 73° ESE 08:40:35 10° NE
YAOGAN 6 2.4 08:36:38 10° NNE 08:39:49 71° ESE 08:42:57 10° S
Cosmos 2150 Rocket 4.1 08:35:46 12° SSW 08:40:36 63° WNW 08:45:53 10° NNE
Cosmos 1812 3.7 08:39:59 10° NNW 08:42:59 26° W 08:45:50 11° SSW
Iridium 4 Rocket 3.6 08:38:53 10° NNW 08:43:14 46° W 08:47:57 10° SSW
ADEOS II 3.8 08:39:59 10° NNW 08:43:29 18° WNW 08:46:59 10° WSW
ALOS 3.6 08:40:30 10° NNW 08:44:14 25° WNW 08:47:51 10° WSW
Cosmos 1605 Rocket 4.2 08:38:18 10° SSW 08:44:22 55° W 08:50:23 10° N
PAYLOAD A 4.2 08:42:23 10° NNE 08:47:39 85° ESE 08:53:02 10° SSW
USA 276 4.4 08:48:21 10° S 08:50:06 15° SE 08:51:49 10° E
Cosmos 1626 Rocket 3.8 08:46:24 10° SSW 08:50:44 54° W 08:55:05 10° N
Cosmos 1515 3.7 08:48:43 10° N 08:52:12 72° E 08:55:39 10° SSE
Cosmos 1378 3.9 08:50:07 10° N 08:53:17 47° E 08:56:26 10° SSE
ATLAS 5 CENTAUR R/B 1.5 08:56:51 10° SW 08:59:58 42° NW 09:03:18 10° NNE
DMSP B5D2-2 4.1 08:54:53 10° SSE 09:00:09 84° WSW 09:05:28 10° NNW
NOSS 2-3 (D) 3.2 08:56:31 10° SW 09:00:11 69° NW 09:04:01 10° NNE
Cosmos 1782 2.7 08:57:52 10° NNW 09:01:42 65° W 09:05:28 10° S
Cosmos 1833 Rocket 3.3 08:59:52 10° NNW 09:05:29 65° ENE 09:11:04 10° SSE
SL-16 R/B 3.7 09:01:08 10° SW 09:05:52 22° W 09:10:38 10° NW
